User: anonymous
Location: Unspecified
(0.0000°N, 0.0000°E)
Time: 09:20:18
(UTC+02:00)
Language:

Gurwin Techsat 1B - Orbit

View from above orbital plane
View from above orbital plane
View from above satellite
View from above satellite

Ground track
Ground track

The orbit data is extracted from the following two-line orbital elements,

1 25397U 98043D   14202.11205098 -.00000028  00000-0  59708-5 0  3983
2 25397 098.4709 158.8392 0001423 158.6401 261.8400 14.23451591832690
Epoch (UTC): 21 July 2014 02:41:21
Eccentricity: 0.0001423
inclination: 98.4709°
perigee height: 812 km
apogee height: 815 km
right ascension of ascending node: 158.8392°
argument of perigee: 158.6401°
revolutions per day: 14.23451591
mean anomaly at epoch: 261.8400°
orbit number at epoch: 83269

The dashed part of the orbit path shows where the satellite is in the earth's shadow,  

DLR